Flag for Thailand Weather past 2 weeks in Hat Yai, Thailand

Now
91 °F

Broken clouds.


Feels Like: 105 °F
Forecast: 79 / 90 °F
Wind: 14 mph from Northeast

Location: Hat Yai Airport

Current Time: Mar 27, 2015 at 2:51:35 PM

Latest Report: Mar 27, 2015 at 2:00 PM


Visibility: N/A

Pressure: 29.83 "Hg

Humidity: 63%

Dew point: 77 °F

Location of Hat YaiLocation

Historic Weather in Hat Yai — Graph

°F

Hat Yai temperature yesterday

Maximum temperature yesterday: 93 °F (at 12:30 PM)
Minimum temperature yesterday: 75 °F (at 2:30 AM)
Average temperature yesterday: 83 °F

Past Weeks' High & Low Weather Summary

 TemperatureHumidityPressure
High99 °F (Mar 19, 2:00 PM)100% (Mar 15, 6:00 AM)30.01 "Hg (Mar 15, 6:00 AM)
Low68 °F (Mar 14, 3:30 AM)26% (Mar 14, 2:00 PM)29.71 "Hg (Mar 18, 3:30 PM)
Average82 °F72%29.87 "Hg
* Reported Mar 12 1:00 PM — Mar 27 1:30 PM, Hat Yai, Weather by CustomWeather, © 2015

Note: Actual official high and low records may vary slightly from our data, if they occured in-between our weather recording intervals... More about our weather records

Advertising

Hat Yai weather history for previous 24 hours

 ConditionsComfort  
Time TempWeatherWind HumidityBarometerVisibility
1:30 PM
Fri, Mar 27
91 °FBroken clouds.18 mph63%29.86 "HgN/A
1:00 PM93 °FBroken clouds.14 mph67%29.86 "HgN/A
12:30 PM91 °FBroken clouds.16 mph71%29.89 "HgN/A
12:00 PM91 °FBroken clouds.17 mph71%29.89 "HgN/A
11:30 AM91 °FBroken clouds.17 mph80%29.92 "HgN/A
10:30 AM90 °FBroken clouds.15 mph79%29.95 "HgN/A
10:00 AM88 °FBroken clouds.15 mph84%29.95 "HgN/A
9:30 AM86 °FBroken clouds.12 mph89%29.95 "HgN/A
9:00 AM84 °FBroken clouds.8 mph89%29.95 "HgN/A
8:30 AM84 °FPartly sunny.6 mph74%29.95 "HgN/A
8:00 AM82 °FPartly sunny.6 mph79%29.95 "HgN/A
7:30 AM81 °FPartly sunny.3 mph84%29.92 "HgN/A
7:00 AM77 °FPartly sunny.2 mph94%29.92 "HgN/A
6:30 AM75 °FPartly sunny.No wind94%29.92 "HgN/A
6:00 AM77 °FPassing clouds.No wind89%29.89 "HgN/A
5:30 AM77 °FPassing clouds.No wind89%29.89 "Hg6 mi
5:00 AM77 °FPassing clouds.No wind89%29.89 "HgN/A
4:00 AM77 °FPassing clouds.2 mph89%29.89 "HgN/A
3:30 AM79 °FPassing clouds.No wind84%29.89 "HgN/A
3:00 AM79 °FPassing clouds.3 mph84%29.89 "HgN/A
2:30 AM79 °FPassing clouds.No wind89%29.89 "HgN/A
2:00 AM77 °FPassing clouds.No wind89%29.89 "HgN/A
1:00 AM79 °FPassing clouds.No wind89%29.92 "HgN/A
12:30 AM81 °FPassing clouds.No wind84%29.95 "HgN/A
12:00 AM81 °FPassing clouds.No wind84%29.95 "HgN/A
11:30 PM
Thu, Mar 26
81 °FPassing clouds.3 mph84%29.95 "HgN/A
11:00 PM81 °FPassing clouds.7 mph79%29.95 "HgN/A
10:30 PM81 °FPassing clouds.5 mph84%29.95 "HgN/A
10:00 PM81 °FPassing clouds.3 mph84%29.95 "HgN/A
9:30 PM82 °FPassing clouds.6 mph79%29.95 "HgN/A
9:00 PM82 °FPassing clouds.6 mph79%29.92 "HgN/A
8:30 PM82 °FPassing clouds.9 mph79%29.92 "HgN/A
8:00 PM82 °FPartly cloudy.10 mph79%29.92 "HgN/A
7:30 PM84 °FPartly cloudy.13 mph66%29.89 "HgN/A
7:00 PM84 °FPassing clouds.15 mph66%29.89 "HgN/A
6:30 PM84 °FPassing clouds.13 mph66%29.89 "HgN/A
6:00 PM86 °FPartly sunny.15 mph62%29.86 "HgN/A
5:30 PM86 °FPartly sunny.18 mph62%29.86 "HgN/A
5:00 PM86 °FPartly sunny.14 mph62%29.86 "HgN/A
4:30 PM88 °FBroken clouds.16 mph59%29.86 "HgN/A
4:00 PM90 °FBroken clouds.15 mph59%29.86 "HgN/A
3:30 PM90 °FBroken clouds.15 mph63%29.86 "HgN/A
3:00 PM91 °FBroken clouds.13 mph59%29.86 "HgN/A
2:30 PM91 °FPartly sunny.15 mph63%29.86 "HgN/A
2:00 PM90 °FPartly sunny.14 mph63%29.86 "HgN/A
Weather by CustomWeather, © 2015

See weather overviewHow to use our weather pages